sat.trackr.live / text

‹ back to catalog

STARLINK-6175

NORAD 56882 · 2023-083G

PAYLOAD ACTIVE UNKNOWN

§ Identity

Operator
Country
US
Launch date
2023-06-12
Launch site
AFETR
Launch vehicle
Mass (kg)
RCS (m²)

Purposes: comms

External: N2YO · Heavens-Above · Gunter

§ Orbital elements

Epoch: 2026-09-20T03:53:22.282944Z

Period
94.27 min
Inclination
43.0028°
Eccentricity
0.0001128
Mean motion
15.27574493 rev/d
Perigee alt
482.3 km
Apogee alt
483.8 km
Semi-major
6,861.2 km
B*
-2.1089e-6
RAAN
66.8183°
Arg perigee
265.6825°
Mean anomaly
94.3898°
Rev number
18,137

§ Raw data

STARLINK-61751 56882U 23083G   26263.16206346 -.00000320  00000+0 -21089-5 0  99932 56882  43.0028  66.8183 0001128 265.6825  94.3898 15.27574493181374

JSON: /api/v1/satellites/56882 · /tle

For live sub-satellite position, see the globe view (requires WebGL).

§ Visibility from observer

Set your observer location to see the next 7 days of passes ≥ 10°. The values pass through the URL so the page stays shareable.

No JS? Fill the form by hand. The geolocation button needs JavaScript.